Location: Chassagnes
(44.4047°N, 4.1657°E)
Time: 11:20:42
(UTC+00:00)

USA 307 - Pass Details

Date: 27 October 2020
Orbit: 569 x 579 km, 54.0° (Epoch: 23 November)

Event Time Altitude Azimuth Distance (km) Brightness Sun altitude
Rises 18:34:25 0° 306° (NW) 2,788 7.3 -21.1°
Reaches altitude 10° 18:36:43 10° 311° (NW) 1,886 6.2 -21.5°
Enters shadow 18:40:50 56° 23° (NNE) 684 3.1 -22.3°
